This is the latest recevied weather packets stored in our database for station/object iw0uwf-4. If no packets are shown the sender has not sent any weather packets the latest 1 day(s).
| Time | Temp. | Humidity | Pressure | Rain* | Wind** | Luminosity | Snow |
|---|---|---|---|---|---|---|---|
| 1777988824 | 21.11° C | 63% | 1005.8 hPa | 0 mm | 2.68 m/s, 270° | 0 W/m² | - |
| 1777988763 | 21.11° C | 63% | 1005.7 hPa | 0 mm | 2.24 m/s, 271° | 0 W/m² | - |
| 1777988703 | 21.11° C | 63% | 1005.9 hPa | 0 mm | 2.24 m/s, 261° | 0 W/m² | - |
| 1777988643 | 21.11° C | 63% | 1005.7 hPa | 0 mm | 2.24 m/s, 249° | 0 W/m² | - |
| 1777988583 | 21.11° C | 62% | 1005.8 hPa | 0 mm | 1.79 m/s, 243° | 0 W/m² | - |
| 1777988523 | 21.11° C | 62% | 1005.8 hPa | 0 mm | 1.79 m/s, 240° | 0 W/m² | - |
| 1777988463 | 21.11° C | 62% | 1005.7 hPa | 0 mm | 1.79 m/s, 234° | 0 W/m² | - |
| 1777988403 | 21.11° C | 62% | 1005.8 hPa | 0 mm | 1.79 m/s, 225° | 0 W/m² | - |
| 1777988343 | 21.11° C | 63% | 1005.9 hPa | 0 mm | 1.79 m/s, 221° | 0 W/m² | - |
| 1777988283 | 21.11° C | 63% | 1005.9 hPa | 0 mm | 1.79 m/s, 219° | 0 W/m² | - |
| 1777988223 | 21.11° C | 63% | 1005.7 hPa | 0 mm | 1.79 m/s, 225° | 0 W/m² | - |
| 1777988163 | 21.11° C | 63% | 1005.8 hPa | 0 mm | 1.79 m/s, 226° | 0 W/m² | - |
| 1777988104 | 21.11° C | 63% | 1005.8 hPa | 0 mm | 1.79 m/s, 242° | 0 W/m² | - |
| 1777988044 | 21.11° C | 63% | 1005.8 hPa | 0 mm | 1.79 m/s, 248° | 0 W/m² | - |
| 1777987984 | 21.11° C | 63% | 1005.8 hPa | 0 mm | 2.24 m/s, 254° | 0 W/m² | - |
| 1777987924 | 20.56° C | 63% | 1005.8 hPa | 0 mm | 2.24 m/s, 263° | 0 W/m² | - |
| 1777987864 | 20.56° C | 63% | 1005.9 hPa | 0 mm | 2.68 m/s, 261° | 0 W/m² | - |
| 1777987804 | 20.56° C | 62% | 1005.8 hPa | 0 mm | 2.68 m/s, 272° | 0 W/m² | - |
| 1777987745 | 20.56° C | 62% | 1005.9 hPa | 0 mm | 2.68 m/s, 274° | 0 W/m² | - |
| 1777987684 | 20.56° C | 62% | 1005.9 hPa | 0 mm | 2.68 m/s, 276° | 0 W/m² | - |
| 1777987624 | 20.56° C | 62% | 1006 hPa | 0 mm | 3.13 m/s, 278° | 0 W/m² | - |
| 1777987564 | 20.56° C | 62% | 1005.9 hPa | 0 mm | 3.13 m/s, 283° | 0 W/m² | - |
| 1777987503 | 20.56° C | 61% | 1005.9 hPa | 0 mm | 3.13 m/s, 278° | 0 W/m² | - |
| 1777987443 | 20.56° C | 61% | 1005.9 hPa | 0 mm | 3.13 m/s, 281° | 0 W/m² | - |
| 1777987383 | 20.56° C | 61% | 1005.9 hPa | 0 mm | 3.13 m/s, 281° | 0 W/m² | - |
* Rain latest hour (hover to see other rain measurements)
** Current wind speed in m/s (hover to see current wind gust speed)